Location: Voyageurs National Park
(48.5020°N, 92.9292°W)
Time: 21:26:48
(UTC-06:00)

Cosmos 1703 - Pass Details

Date: 19 January 2018
Orbit: 525 x 543 km, 82.5° (Epoch: 17 February)

Event Time Altitude Azimuth Distance (km) Brightness Sun altitude
Exits shadow 06:48:21 - 337° (NNW) 2,220 6.0 -10.9°
Reaches altitude 10° 06:49:26 10° 332° (NNW) 1,812 5.5 -10.8°
Maximum altitude 06:52:58 31° 269° (W) 956 4.0 -10.2°
Drops below altitude 10° 06:56:28 10° 206° (SSW) 1,788 5.9 -9.7°
Sets 06:58:45 0° 196° (SSW) 2,671 6.9 -9.3°
